Weather History for KLNK - December, 2012

Change the Weather History Date:

Friday, December 7, 2012

  Actual Average Record
Temperature  
Mean Temperature 34 °F 29 °F  
Max Temperature 45 °F 39 °F 65 °F (1984)
Min Temperature 23 °F 18 °F -9 °F (1917)
Degree Days  
Heating Degree Days 31 36  
Month to date heating degree days 160 246  
Since 1 July heating degree days 1444 1507  
Cooling Degree Days 0 0  
Month to date cooling degree days 0 0  
Year to date cooling degree days 1491 1173  
Moisture  
Dew Point 26 °F    
Average Humidity 69    
Maximum Humidity 81    
Minimum Humidity 57    
Precipitation  
Precipitation T in 0.04 in 0.74 in (1892)
Month to date precipitation T 0.25  
Year to date precipitation 17.64 28.25  
Snow  
Snow 0.00 in 0.10 in - ()
Month to date snowfall 0.0 1.2  
Since 1 July snowfall T 4.0  
Snow Depth 0.00 in    
Sea Level Pressure  
Sea Level Pressure 29.97 in    
Wind  
Wind Speed 4 mph (North)    
Max Wind Speed 9 mph    
Max Gust Speed 12 mph    
Visibility 9 miles    
Events      
T = Trace of Precipitation, MM = Missing Value Source: NWS Daily Summary

Daily Weather History Graph

Daily Weather History Graph

Search for Another Location

Airport or City:

Trip Planner

Search our weather history database for the weather conditions in past years. The results will help you decide how hot, cold, wet, or windy it might be!

Date:

Astronomy

Dec. 07, 2012 Rise Set
Actual Time 7:38 AM CST 4:59 PM CST
Civil Twilight 7:07 AM CST 5:29 PM CST
Nautical Twilight 6:33 AM CST 6:04 PM CST
Astronomical Twilight 6:00 AM CST 6:37 PM CST
Moon 12:56 AM CST (12/7) 12:58 PM CST (12/7)
Length of Visible Light 10h 22m
Length of Day
9h 20m
Last Quarter, 38% of the Moon is Illuminated
Dec 7
Last Quarter
Dec 13
New
Dec 19
First Quarter
Dec 28
Full
Jan 4
Last Quarter

Hourly Weather History & Observations

Time (CST) Temp. Windchill Dew Point Humidity Pressure Visibility Wind Dir Wind Speed Gust Speed Precip Events Conditions
12:54 AM 37.9 °F 32.1 °F 26.1 °F 62% 30.01 in 10.0 mi North 8.1 mph - N/A   Overcast
1:54 AM 37.9 °F 32.1 °F 26.1 °F 62% 30.01 in 10.0 mi North 8.1 mph - N/A   Overcast
2:54 AM 33.1 °F 28.7 °F 24.1 °F 70% 30.00 in 10.0 mi North 4.6 mph - N/A   Scattered Clouds
3:54 AM 35.1 °F 31.0 °F 25.0 °F 67% 29.99 in 10.0 mi NNW 4.6 mph - N/A   Overcast
4:54 AM 30.0 °F - 23.0 °F 75% 29.98 in 10.0 mi Calm Calm - N/A   Clear
5:54 AM 27.0 °F 21.6 °F 21.9 °F 81% 29.98 in 10.0 mi North 4.6 mph - N/A   Clear
6:54 AM 28.9 °F 25.2 °F 23.0 °F 78% 29.98 in 10.0 mi NW 3.5 mph - N/A   Clear
7:54 AM 24.1 °F - 19.0 °F 81% 29.98 in 9.0 mi Calm Calm - N/A   Clear
8:54 AM 32.0 °F 28.7 °F 26.1 °F 79% 29.97 in 9.0 mi North 3.5 mph - N/A   Clear
9:54 AM 36.0 °F 31.1 °F 28.0 °F 73% 29.96 in 8.0 mi North 5.8 mph - N/A   Clear
10:54 AM 42.1 °F - 28.9 °F 60% 29.97 in 8.0 mi Calm Calm - N/A   Clear
11:54 AM 44.1 °F - 30.0 °F 58% 29.96 in 8.0 mi Calm Calm - N/A   Overcast
12:54 PM 45.0 °F 41.2 °F 30.9 °F 58% 29.95 in 9.0 mi WNW 6.9 mph - N/A   Mostly Cloudy
1:54 PM 44.1 °F 42.5 °F 30.9 °F 60% 29.94 in 9.0 mi NNW 3.5 mph - N/A   Overcast
2:54 PM 44.1 °F 41.5 °F 30.0 °F 58% 29.92 in 9.0 mi North 4.6 mph - 0.00 in   Overcast
3:54 PM 43.0 °F 40.3 °F 34.0 °F 71% 29.92 in 9.0 mi East 4.6 mph - 0.00 in   Overcast
4:54 PM 39.0 °F 36.8 °F 30.9 °F 73% 29.91 in 9.0 mi ENE 3.5 mph - N/A   Scattered Clouds
5:54 PM 33.1 °F 28.7 °F 27.0 °F 78% 29.95 in 10.0 mi North 4.6 mph - N/A   Clear
6:54 PM 30.2 °F 22.6 °F 24.8 °F 80% 29.93 in 9.0 mi North 8.1 mph - N/A   Clear
7:54 PM 33.1 °F 26.9 °F 25.0 °F 72% 29.98 in 10.0 mi North 6.9 mph - N/A   Clear
8:54 PM 32.0 °F 27.5 °F 24.1 °F 73% 29.99 in 10.0 mi North 4.6 mph - N/A   Clear
9:54 PM 32.0 °F - 24.1 °F 73% 30.01 in 10.0 mi Calm Calm - N/A   Partly Cloudy
10:54 PM 30.0 °F - 24.1 °F 79% 30.01 in 9.0 mi Calm Calm - N/A   Clear
11:54 PM 28.0 °F 19.3 °F 23.0 °F 81% 30.02 in 9.0 mi North 9.2 mph - N/A   Clear